Location: Kunchanapalle
(16.4623°N, 80.6176°E)
Time: 18:37:58
(UTC+00:00)

GPS 2-17 Rocket1 - Pass Details

Date: 13 August 2020
Orbit: 571 x 659 km, 20.3° (Epoch: 19 September)

Event Time Altitude Azimuth Distance (km) Brightness Sun altitude
Rises 14:47:53 0° 281° (WNW) 2,854 7.8 -24.4°
Reaches altitude 10° 14:50:15 10° 280° (W) 1,935 6.6 -24.9°
Enters shadow 14:54:06 62° 258° (WSW) 664 3.3 -25.8°
